Location: Downe
(51.3167°N, 0.0500°E)
Time: 18:10:52
(UTC+00:00)

Cosmos 1151 Rocket - Pass Details

Date: 17 November 2019
Orbit: 592 x 616 km, 82.5° (Epoch: 14 December)

Event Time Altitude Azimuth Distance (km) Brightness Sun altitude
Exits shadow 05:58:51 - 341° (NNW) 2,713 6.0 -12.5°
Reaches altitude 10° 06:00:45 10° 334° (NNW) 1,987 5.3 -12.2°
Maximum altitude 06:04:45 35° 269° (W) 1,000 3.6 -11.6°
Drops below altitude 10° 06:08:41 10° 204° (SSW) 1,961 5.6 -11.0°
Sets 06:11:01 0° 195° (SSW) 2,856 6.5 -10.7°
